Miscellaneous Local Product
Issued by NWS North Platte, NE

Home | Current Version | Previous Version | Text Only | Print | Product List | Glossary On
Versions: 1 2 3 4 5 6 7 8 9 10 11 12 13 14 15 16 17 18 19 20 21 22 23 24 25 26 27 28 29 30 31 32 33 34 35 36 37 38 39 40 41 42 43 44 45 46 47 48 49 50
000
AXUS43 KLBF 240610
MISLBF


WESTERN AND NORTH CENTRAL NEBRASKA HOURLY WEATHER ROUNDUP
NATIONAL WEATHER SERVICE NORTH PLATTE NE
1200 AM CST FRI FEB 24 2017

NOTE: "FAIR" INDICATES FEW OR NO CLOUDS BELOW 12,000 FEET WITH NO
SIGNIFICANT WEATHER AND/OR OBSTRUCTIONS TO VISIBILITY.

NOTE: STATIONS NOT REPORTING VARIABLES SUCH AS SKY/WEATHER OR
PRESSURE ARE PROVIDED BY RAWS AND APRS NETWORKS AND ARE NOT UNDER
NATIONAL WEATHER SERVICE QUALITY CONTROL.

...OBSERVATIONS IN AND NEAR THE EASTERN PANHANDLE OF NEBRASKA...

CITY           SKY/WX    TMP DP  RH WIND       PRES   REMARKS
PINE RIDGE     LGT SNOW  24  21  88 NE10      29.95R VSB 1   WCI  14
CHADRON        LGT SNOW  24  20  84 NE13      29.96S FOG     WCI  12
ALLIANCE       LGT SNOW  20  18  92 N13       29.87S FOG     WCI   7
SIDNEY         CLOUDY    20  17  88 N20       29.83R WCI   4
CRESCENT LAKE    N/A     20  19  96 N15G22      N/A  WCI   6
$$

...OBSERVATIONS IN NORTHERN NEBRASKA AND FAR SOUTHERN SOUTH DAKOTA...

CITY           SKY/WX    TMP DP  RH WIND       PRES   REMARKS
WINNER         LGT SNOW  26  23  88 N17       29.93S FOG     WCI  13
VALENTINE      CLOUDY    23  19  85 N18G29    29.89S FOG     WCI   9
THEDFORD       LGT SNOW  24  22  92 N21G29    29.83R VSB 1   WCI   9
AINSWORTH        N/A     23  23  97 N25       29.85S WCI   7
O`NEILL        CLOUDY    26  25  96 N22G32    29.82S WCI  12
ORD            LGT SNOW  26  21  81 N18G29    29.75F WCI  13
BROKEN BOW     LGT SNOW  25  23  92 N23G35    29.75S FOG     WCI  10
VALENTINE NWR    N/A     22  20  93 N13G25      N/A  WCI  10
BUTTE            N/A     24  23  94 N20G29      N/A  WCI  10
HALSEY           N/A     22  21  94 N9G20       N/A  WCI  12
CHAMBERS         N/A     24  23  95 W12         N/A  WCI  13
EWING            N/A     25  24  95 N8G21       N/A  WCI  16
$$

...OBSERVATIONS IN SOUTHWEST NEBRASKA AND FAR NORTHEAST COLORADO...

CITY           SKY/WX    TMP DP  RH WIND       PRES   REMARKS
HOLYOKE        FLURRIES  25  21  86 N10       29.83S WCI  15
IMPERIAL       LGT SNOW  23  19  85 N18       29.82S FOG     WCI   9
OGALLALA       LGT SNOW  25  22  86 N21G28    29.83R WCI  11
NORTH PLATTE   LGT SNOW  24  20  84 N18G26    29.79S FOG     WCI  10
MCCOOK         CLOUDY    27  24  89 N16G25    29.78R WCI  15
LEXINGTON      CLOUDY    27  24  88 N21       29.76S FOG     WCI  13
STAPLETON        N/A     21  19  93 CALM        N/A
GOTHENBURG       N/A     25  22  89 N12         N/A  WCI  14
CALLAWAY         N/A     23  21  93 N13         N/A  WCI  11
$$

...OBSERVATIONS IN CENTRAL LINCOLN COUNTY AREA...

CITY           SKY/WX    TMP DP  RH WIND       PRES   REMARKS
N.P. AIRPORT   LGT SNOW  24  20  84 N18G26    29.79S FOG     WCI  10
N.P. DOWNTOWN    N/A     23  20  89 N12G22      N/A  WCI  12
N.P. SOUTHEAST   N/A     22  20  90 N8G18       N/A  WCI  13
N.P. HILLCREST   N/A     23  21  91 NE24        N/A  WCI   7
$$

...SOME OBSERVATIONS FROM AROUND THE REGION...

CITY           SKY/WX    TMP DP  RH WIND       PRES   REMARKS
LARAMIE        LGT SNOW  11   6  81 E3        29.74R
CHEYENNE       LGT SNOW  14  10  84 N9        29.80S FOG     WCI   2
DENVER         FLURRIES  19  13  77 N9        29.85R WCI   8
AKRON          LGT SNOW  19  16  88 N10       29.82R FOG     WCI   7
SCOTTSBLUFF    LGT SNOW  23  17  78 NE18      29.89F WCI   9
RAPID CITY     MIX PCPN  25  20  81 NE14      29.99R WCI  13
BISMARCK       CLOUDY    19  13  77 N7        30.15R WCI  10
PIERRE         CLOUDY    29  21  72 NE20      29.99S WCI  16
SIOUX FALLS    LGT SNOW  28  26  92 N21G32    29.82F FOG     WCI  15
OMAHA          LGT SNOW  33  29  85 N18       29.58F FOG     WCI  22
GRAND ISLAND   LGT SNOW  29  28  96 N18G26    29.70F FOG     WCI  16
KANSAS CITY    CLOUDY    47  46  97 NW16G26   29.43R FOG
WICHITA        CLOUDY    42  36  79 NW29G36   29.58S
OKLAHOMA CITY  CLEAR     47  37  68 N23G35    29.57R
DALLAS         CLEAR     71  60  68 S18G25    29.56R
AMARILLO       MOCLDY    36  32  85 N18       29.74R WCI  26
DODGE CITY     CLOUDY    33  25  72 N25G32    29.70F WCI  20
HAYS           CLOUDY    33  27  78 N21G26    29.71R WCI  21
GOODLAND       CLOUDY    24  20  84 N25G31    29.76S WCI   8
$$




USA.gov is the U.S. government's official web portal to all federal, state and local government web resources and services.